JFA34W LFRS-LFMD

Flight info

Callsign JFA34W
Flight time N/A
Altitude 23000
Route LUGEN UM184 TUPAR DCT XATEL
Aircraft PC12/L-SDFGRWY/S

Departure

Time 2026-05-05 07:07
Airport Nantes Atlantique Airport (LFRS)

Arrival

Time N/A
Airport Cannes Mandelieu Airport (LFMD)
Time Latitude Longitude Altitude Speed Heading
2026-05-05 07:05 47.15004 -1.61061 89 ft 1 kts 194°
2026-05-05 07:05 47.14949 -1.61086 88 ft 12 kts 204°
2026-05-05 07:05 47.14872 -1.61146 88 ft 11 kts 211°
2026-05-05 07:05 47.14830 -1.61234 87 ft 9 kts 250°
2026-05-05 07:06 47.14817 -1.61323 86 ft 10 kts 263°
2026-05-05 07:06 47.14849 -1.61408 86 ft 8 kts 329°
2026-05-05 07:06 47.14892 -1.61411 86 ft 5 kts 30°
2026-05-05 07:06 47.14931 -1.61388 86 ft 5 kts 35°
2026-05-05 07:07 47.15098 -1.61244 88 ft 63 kts 15°
2026-05-05 07:07 47.15641 -1.60838 191 ft 98 kts 17°
2026-05-05 07:07 47.16268 -1.60411 579 ft 102 kts 24°
2026-05-05 07:07 47.16719 -1.59507 882 ft 125 kts 71°
2026-05-05 07:08 47.16606 -1.58184 1230 ft 141 kts 117°
2026-05-05 07:08 47.15882 -1.57230 1614 ft 147 kts 154°
2026-05-05 07:08 47.14951 -1.56593 2046 ft 149 kts 154°
2026-05-05 07:08 47.14046 -1.55884 2480 ft 147 kts 150°
2026-05-05 07:09 47.13192 -1.55131 3001 ft 143 kts 148°
2026-05-05 07:09 47.12349 -1.54344 3462 ft 144 kts 147°
2026-05-05 07:09 47.11506 -1.53539 3914 ft 145 kts 147°
2026-05-05 07:09 47.10669 -1.52729 4361 ft 145 kts 147°
2026-05-05 07:10 47.09831 -1.51913 4801 ft 146 kts 147°
2026-05-05 07:10 47.08991 -1.51099 5242 ft 146 kts 147°
2026-05-05 07:10 47.08139 -1.50272 5665 ft 147 kts 147°
2026-05-05 07:10 47.07291 -1.49449 6082 ft 148 kts 147°
2026-05-05 07:11 47.06456 -1.48579 6493 ft 149 kts 139°
2026-05-05 07:11 47.05698 -1.47548 6906 ft 149 kts 137°
2026-05-05 07:11 47.04940 -1.46521 7304 ft 149 kts 138°